Weather History for Appleton, MN

Change the Weather History Date:

Wednesday, February 13, 2013

  Actual Average Record
Temperature  
Mean Temperature 26 °F -  
Max Temperature 37 °F 24 °F 42 °F (2011)
Min Temperature 15 °F 8 °F -7 °F (2007)
Degree Days  
Heating Degree Days 39    
Moisture  
Dew Point 24 °F    
Average Humidity 86    
Maximum Humidity 93    
Minimum Humidity 65    
Precipitation  
Precipitation 0.16 in - - ()
Sea Level Pressure  
Sea Level Pressure 29.67 in    
Wind  
Wind Speed 7 mph (WSW)    
Max Wind Speed 20 mph    
Max Gust Speed 24 mph    
Visibility 8 miles    
Events Rain , Snow    
Averages and records for this station are not official NWS values.
T = Trace of Precipitation, MM = Missing Value Source: NWS Daily Summary

Daily Weather History Graph

Daily Weather History Graph

Search for Another Location

Airport:

Trip Planner

Search our weather history database for the weather conditions in past years. The results will help you decide how hot, cold, wet, or windy it might be!

Date:

Astronomy

Feb. 13, 2013 Rise Set
Actual Time 7:27 AM CST 5:49 PM CST
Civil Twilight 6:57 AM CST 6:19 PM CST
Nautical Twilight 6:22 AM CST 6:54 PM CST
Astronomical Twilight 5:48 AM CST 7:28 PM CST
Moon 8:44 AM CST (2/13) 10:07 PM CST (2/13)
Length of Visible Light 11h 22m
Length of Day
10h 21m
Waxing Crescent, 14% of the Moon is Illuminated
Feb 13
Waxing Crescent
Feb 17
First Quarter
Feb 25
Full
Mar 4
Last Quarter
Mar 11
New

Hourly Weather History & Observations

Time (CST) Temp. Windchill Dew Point Humidity Pressure Visibility Wind Dir Wind Speed Gust Speed Precip Events Conditions
12:14 AM 15.8 °F 7.2 °F 12.2 °F 86% 29.81 in 10.0 mi SW 5.8 mph - N/A   Mostly Cloudy
12:33 AM 17.6 °F 9.3 °F 15.8 °F 93% 29.80 in 10.0 mi SW 5.8 mph - N/A   Overcast
12:53 AM 19.4 °F 10.4 °F 15.8 °F 86% 29.80 in 10.0 mi WSW 6.9 mph - N/A   Overcast
1:13 AM 19.4 °F 9.5 °F 15.8 °F 86% 29.79 in 10.0 mi WSW 8.1 mph - N/A   Overcast
1:33 AM 17.6 °F 9.3 °F 15.8 °F 93% 29.79 in 10.0 mi WSW 5.8 mph - N/A   Scattered Clouds
1:53 AM 17.6 °F 8.2 °F 15.8 °F 93% 29.79 in 10.0 mi West 6.9 mph - N/A   Clear
2:13 AM 17.6 °F 7.3 °F 15.8 °F 93% 29.79 in 10.0 mi WSW 8.1 mph - N/A   Scattered Clouds
2:33 AM 17.6 °F 8.2 °F 15.8 °F 93% 29.78 in 10.0 mi WSW 6.9 mph - N/A   Mostly Cloudy
2:54 AM 19.4 °F 11.5 °F 17.6 °F 93% 29.78 in 10.0 mi WSW 5.8 mph - N/A   Mostly Cloudy
3:13 AM 19.4 °F 12.8 °F 17.6 °F 93% 29.77 in 10.0 mi WSW 4.6 mph - N/A   Overcast
3:33 AM 19.4 °F 14.3 °F 17.6 °F 93% 29.77 in 10.0 mi WSW 3.5 mph - N/A   Overcast
3:54 AM 19.4 °F 14.3 °F 17.6 °F 93% 29.76 in 10.0 mi WSW 3.5 mph - N/A   Overcast
4:13 AM 21.2 °F 14.9 °F 19.4 °F 93% 29.76 in 10.0 mi WSW 4.6 mph - N/A   Overcast
4:33 AM 24.8 °F 20.5 °F 21.2 °F 86% 29.75 in 10.0 mi SW 3.5 mph - N/A   Overcast
4:53 AM 24.8 °F 20.5 °F 21.2 °F 86% 29.75 in 10.0 mi SW 3.5 mph - N/A   Overcast
5:13 AM 26.6 °F 19.1 °F 21.2 °F 80% 29.73 in 10.0 mi SSW 6.9 mph - N/A   Overcast
5:34 AM 26.6 °F 21.2 °F 21.2 °F 80% 29.72 in 10.0 mi South 4.6 mph - N/A   Overcast
5:53 AM 26.6 °F 21.2 °F 23.0 °F 86% 29.71 in 10.0 mi South 4.6 mph - N/A   Overcast
6:13 AM 26.6 °F 21.2 °F 21.2 °F 80% 29.71 in 10.0 mi SW 4.6 mph - N/A   Mostly Cloudy
6:33 AM 24.8 °F 19.1 °F 21.2 °F 86% 29.70 in 10.0 mi SSW 4.6 mph - N/A   Scattered Clouds
6:54 AM 24.8 °F 19.1 °F 19.4 °F 80% 29.70 in 10.0 mi SW 4.6 mph - N/A   Clear
7:13 AM 21.2 °F 14.9 °F 19.4 °F 93% 29.70 in 10.0 mi SSW 4.6 mph - N/A   Clear
7:33 AM 23.0 °F 18.4 °F 21.2 °F 93% 29.70 in 10.0 mi SW 3.5 mph - N/A   Clear
7:54 AM 21.2 °F 14.9 °F 17.6 °F 86% 29.70 in 10.0 mi SW 4.6 mph - N/A   Clear
8:13 AM 23.0 °F 17.0 °F 19.4 °F 86% 29.70 in 10.0 mi WSW 4.6 mph - N/A   Clear
8:33 AM 24.8 °F 19.1 °F 19.4 °F 80% 29.70 in 10.0 mi WSW 4.6 mph - N/A   Clear
8:54 AM 26.6 °F - 19.4 °F 74% 29.70 in 10.0 mi Calm Calm - N/A   Clear
9:14 AM 24.8 °F 19.1 °F 19.4 °F 80% 29.69 in 10.0 mi SW 4.6 mph - N/A   Clear
9:34 AM 26.6 °F 22.6 °F 21.2 °F 80% 29.68 in 10.0 mi SSW 3.5 mph - N/A   Clear
9:54 AM 30.2 °F 25.4 °F 21.2 °F 69% 29.68 in 10.0 mi South 4.6 mph - N/A   Mostly Cloudy
10:13 AM 30.2 °F 26.7 °F 23.0 °F 75% 29.67 in 10.0 mi South 3.5 mph - N/A   Overcast
10:34 AM 30.2 °F 26.7 °F 23.0 °F 75% 29.67 in 10.0 mi South 3.5 mph - N/A   Overcast
11:13 AM 32.0 °F 27.5 °F 24.8 °F 75% 29.67 in 10.0 mi SW 4.6 mph - N/A   Mostly Cloudy
11:33 AM 33.8 °F - 24.8 °F 70% 29.67 in 10.0 mi Calm Calm - N/A   Scattered Clouds
11:53 AM 33.8 °F - 24.8 °F 70% 29.66 in 10.0 mi Calm Calm - 0.01 in   Scattered Clouds
12:13 PM 35.6 °F 32.8 °F 26.6 °F 70% 29.65 in 10.0 mi WSW 3.5 mph - 0.01 in   Scattered Clouds
12:53 PM 35.6 °F 31.7 °F 26.6 °F 70% 29.64 in 10.0 mi SW 4.6 mph - 0.04 in   Clear
1:13 PM 35.6 °F - 24.8 °F 65% 29.62 in 10.0 mi Calm Calm - 0.01 in   Scattered Clouds
1:33 PM 35.6 °F 32.8 °F 26.6 °F 70% 29.62 in 10.0 mi WSW 3.5 mph - 0.03 in   Scattered Clouds
1:53 PM 37.4 °F - 28.4 °F 70% 29.61 in 10.0 mi Calm Calm - 0.04 in   Clear
2:13 PM 35.6 °F 31.7 °F 28.4 °F 75% 29.59 in 1.5 mi SSE 4.6 mph - 0.01 in Snow Light Snow
2:34 PM 33.8 °F 28.6 °F 30.2 °F 87% 29.58 in 1.0 mi SE 5.8 mph - 0.01 in Snow Light Snow
2:53 PM 33.8 °F 28.6 °F 30.2 °F 87% 29.57 in 7.0 mi ESE 5.8 mph - 0.03 in Snow Light Snow
3:14 PM 33.8 °F 28.6 °F 30.2 °F 87% 29.57 in 5.0 mi SE 5.8 mph - 0.01 in Rain Light Rain
3:34 PM 33.8 °F 27.7 °F 30.2 °F 87% 29.57 in 1.5 mi South 6.9 mph - 0.01 in Snow Light Snow
3:53 PM 33.8 °F 27.0 °F 30.2 °F 87% 29.58 in 1.5 mi SSW 8.1 mph - 0.02 in Snow Light Snow
4:13 PM 33.8 °F 27.0 °F 32.0 °F 93% 29.57 in 2.0 mi South 8.1 mph - N/A Snow Light Snow
4:33 PM 33.8 °F 27.7 °F 32.0 °F 93% 29.57 in 1.0 mi SSW 6.9 mph - 0.01 in Snow Light Snow
4:53 PM 33.8 °F 28.6 °F 32.0 °F 93% 29.57 in 1.2 mi SSW 5.8 mph - 0.01 in Snow Light Snow
5:13 PM 33.8 °F 27.0 °F 32.0 °F 93% 29.56 in 1.5 mi South 8.1 mph - N/A Snow Light Snow
5:33 PM 33.8 °F 27.7 °F 32.0 °F 93% 29.56 in 7.0 mi SW 6.9 mph - 0.01 in Snow Light Snow
5:53 PM 33.8 °F 27.7 °F 32.0 °F 93% 29.56 in 7.0 mi SW 6.9 mph - 0.01 in   Overcast
6:13 PM 33.8 °F 28.6 °F 32.0 °F 93% 29.56 in 7.0 mi SW 5.8 mph - N/A   Overcast
6:33 PM 33.8 °F 30.8 °F 32.0 °F 93% 29.56 in 7.0 mi WSW 3.5 mph - N/A   Overcast
6:53 PM 33.8 °F 27.7 °F 32.0 °F 93% 29.56 in 10.0 mi WSW 6.9 mph - N/A   Overcast
7:13 PM 33.8 °F 27.0 °F 32.0 °F 93% 29.57 in 10.0 mi West 8.1 mph - N/A   Overcast
7:33 PM 33.8 °F 24.3 °F 32.0 °F 93% 29.58 in 10.0 mi WNW 13.8 mph - N/A   Overcast
7:53 PM 33.8 °F 23.5 °F 30.2 °F 87% 29.59 in 10.0 mi NW 16.1 mph 21.9 mph N/A   Overcast
8:13 PM 33.8 °F 23.2 °F 30.2 °F 87% 29.59 in 10.0 mi NW 17.3 mph - N/A   Overcast
8:33 PM 32.0 °F 21.6 °F 30.2 °F 93% 29.60 in 10.0 mi NNW 15.0 mph - N/A   Overcast
8:54 PM 30.2 °F 18.1 °F 28.4 °F 93% 29.61 in 5.0 mi NNW 18.4 mph 24.2 mph N/A Snow Light Snow
9:13 PM 30.2 °F 18.9 °F 28.4 °F 93% 29.62 in 3.0 mi NNW 16.1 mph - N/A Snow Light Snow
9:33 PM 30.2 °F 18.5 °F 28.4 °F 93% 29.63 in 2.5 mi NNW 17.3 mph 20.7 mph N/A Snow Light Snow
9:53 PM 30.2 °F 18.9 °F 28.4 °F 93% 29.64 in 3.0 mi NNW 16.1 mph - N/A Snow Light Snow
10:14 PM 30.2 °F 18.1 °F 28.4 °F 93% 29.65 in 4.0 mi NNW 18.4 mph - N/A Snow Light Snow
10:33 PM 30.2 °F 18.1 °F 28.4 °F 93% 29.66 in 4.0 mi NNW 18.4 mph - N/A Snow Light Snow
10:53 PM 28.4 °F 15.8 °F 26.6 °F 93% 29.67 in 4.0 mi NNW 18.4 mph 23.0 mph N/A Snow Light Snow
11:13 PM 28.4 °F 15.8 °F 26.6 °F 93% 29.68 in 5.0 mi NNW 18.4 mph 23.0 mph N/A   Overcast
11:33 PM 26.6 °F 13.4 °F 24.8 °F 93% 29.70 in 7.0 mi NW 18.4 mph - N/A   Overcast
11:54 PM 26.6 °F 13.1 °F 24.8 °F 93% 29.71 in 7.0 mi NW 19.6 mph - N/A   Overcast